SL-12 R/B(AUX MOTOR)

基本信息
目录编号:
28920
目录名称:
SL-12 R/B(AUX MOTOR)
国际标识:
2005-050F
轨道中心:
EARTH
物体状态:
在轨
发射日期:
2005-12-25 UTC
国别:
俄罗斯(独联体) (CIS)
轨道信息
数据来源: 国际轨道数据
星历时间: 2026-07-13T10:10:42+0800
半长轴: 16185.851km
偏心率: 0.5793155
轨道倾角: 65.167°
近地点辐角: 164.527°
升交点赤经: 55.873°
平近点角: 225.955°
近地点: 430.999km
远地点: 19184.429km
周期: 341.557分钟
每日圈数: 4.215989
详细信息
发射场:
TTMTR
轨道高度:
LEO
数据来源:
AOE Integration Group
参考系:
TEME
时间系统:
UTC
历元类型:
SGP4
2D轨道图
3D轨道图
轨道高度分析图
轨道倾角分析图
轨道综合分析图
查看轨道综合分析图